Find Starlink 32282

NORAD ID: 61006 Int'l Des: 2024-158 Owner: SPXS Country: US Constellation: starlink operational
LEOCIRCULAR

实时位置

正在加载3D地球...

关于 Starlink 32282

正在加载描述...

即将过境

Passes for default location (London). Set your location on the main map for personalized predictions.

高度历史

Loading altitude history...

两行轨道根数

1 61006U 24158S 26127.28339155 .00000733 00000-0 36893-4 0 9993
2 61006 53.1604 153.2621 0001250 61.8348 298.2779 15.30187762 94627
Epoch: May 7, 2026 • Age: 11 hours

当前状态

高度 491.8 km
速度 7.62 km/s
星下点 -46.97°S, 29.66°W
发射日期 Sep 5, 2024
运行时间 1.6 years
类型 internet

技术详情

分类 Payload
质量 730.00 kg
干质量 700.00 kg
总质量 730.00 kg
长度 0.30 m
直径 4.10 m
跨度 29.00 m
形状 Box + pan
制造商 SPXS
平台类型 Starlink V2M
阶段状态 In Orbit
所有者/国家 SPXS/US

Most Searched